Location: Newark
(35.4036°N, 80.4356°W)
Time: 08:55:44
(UTC+00:00)

ISS - Pass Details

Date: 28 July 2019
Orbit: 410 x 421 km, 51.6° (Epoch: 26 August)

Event Time Altitude Azimuth Distance (km) Brightness Sun altitude
Rises 03:41:11 0° 325° (NW) 2,368 1.3 -29.9°
Reaches altitude 10° 03:43:59 10° 350° (N) 1,499 -0.1 -30.2°
Enters shadow 03:44:31 12° 358° (N) 1,381 -0.5 -30.2°
